This is the latest recevied weather packets stored in our database for station/object AB8Y-13. If no packets are shown the sender has not sent any weather packets the latest 10 day(s).
| Time | Temp. | Humidity | Pressure | Rain* | Wind** | Luminosity | Snow |
|---|---|---|---|---|---|---|---|
| 1777734558 | 6.11° C | 47% | 1018.3 hPa | 0 mm | - | 921 W/m² | - |
| 1777734254 | 6.11° C | 48% | 1018.6 hPa | 0 mm | - | 161 W/m² | - |
| 1777733951 | 6.67° C | 46% | 1018.5 hPa | 0 mm | - | 145 W/m² | - |
| 1777733648 | 7.22° C | 44% | 1018.5 hPa | 0 mm | - | 169 W/m² | - |
| 1777733344 | 6.11° C | 48% | 1018.5 hPa | 0 mm | - | 888 W/m² | - |
| 1777733041 | 5.56° C | 50% | 1018.5 hPa | 0 mm | - | 167 W/m² | - |
| 1777732737 | 6.11° C | 49% | 1018.5 hPa | 0 mm | - | 139 W/m² | - |
| 1777732434 | 7.22° C | 46% | 1018.3 hPa | 0 mm | - | 185 W/m² | - |
| 1777732132 | 7.22° C | 48% | 1018.4 hPa | 0 mm | - | 322 W/m² | - |
| 1777731828 | 6.67° C | 45% | 1018.6 hPa | 0 mm | - | 784 W/m² | - |
| 1777731525 | 6.11° C | 46% | 1018.5 hPa | 0 mm | - | 675 W/m² | - |
| 1777731223 | 6.11° C | 52% | 1018.5 hPa | 0 mm | - | 684 W/m² | - |
| 1777730921 | 7.22° C | 45% | 1018.7 hPa | 0 mm | - | 148 W/m² | - |
| 1777730618 | 7.78° C | 48% | 1018.6 hPa | 0 mm | - | 683 W/m² | - |
| 1777730314 | 7.22° C | 50% | 1018.6 hPa | 0 mm | - | 618 W/m² | - |
| 1777730011 | 6.67° C | 49% | 1018.5 hPa | 0 mm | - | 560 W/m² | - |
| 1777729707 | 6.11° C | 51% | 1018.6 hPa | 0 mm | - | 536 W/m² | - |
| 1777729404 | 6.67° C | 48% | 1018.9 hPa | 0 mm | - | 505 W/m² | - |
| 1777729100 | 6.67° C | 50% | 1018.7 hPa | 0 mm | - | 91 W/m² | - |
| 1777728797 | 6.11° C | 56% | 1019 hPa | 0 mm | - | 467 W/m² | - |
| 1777728494 | 6.67° C | 51% | 1019 hPa | 0 mm | - | 449 W/m² | - |
| 1777728192 | 6.67° C | 60% | 1018.8 hPa | 0 mm | - | 426 W/m² | - |
| 1777727889 | 6.11° C | 56% | 1018.8 hPa | 0 mm | - | 411 W/m² | - |
| 1777727586 | 6.11° C | 61% | 1018.8 hPa | 0 mm | - | 392 W/m² | - |
| 1777727283 | 5.56° C | 58% | 1018.9 hPa | 0 mm | - | 371 W/m² | - |
* Rain latest hour (hover to see other rain measurements)
** Current wind speed in m/s (hover to see current wind gust speed)